STARLINK-34584

Last updated on Sat Jul 19 2025 00:02:08 GMT+0000 (Coordinated Universal Time)

1 64697U 25142B 25199.57032022 -.00142754 00000+0 -22265-2 0 9996 2 64697 70.0003 194.7056 0004145 275.7577 84.3138 15.54117230 4167
UTC large
Height (km)
Speed (km/s)
/
Latitude / Longitude
Inclination (degrees)
Orbital Period (minutes)
Azimuth
Elevation
Range (km)
Doppler Factor

Next 0 passes for location: London (51.5072 / 0.1276)

Sorry there are no passes over London.